Flag for China Weather past 2 weeks in Lanchow, Gansu, China

Now
50 °F

Clear.


Feels Like: 49 °F
Forecast: 53 / 85 °F
Wind: 3 mph from Northwest

Location: Lanzhou / Zhongchuan

Current Time: Aug 28, 2014 at 5:50:47 AM

Latest Report: Aug 28, 2014 at 5:00 AM


Visibility: 10 mi

Pressure: 30.12 "Hg

Humidity: 82%

Dew point: 45 °F

Location of LanchowLocation

Historic Weather in Lanchow — Graph

°F

Lanchow temperature yesterday

Maximum temperature yesterday: 79 °F (at 3:00 PM)
Minimum temperature yesterday: 48 °F (at 4:00 AM)
Average temperature yesterday: 63 °F

Past Weeks' High & Low Weather Summary

 TemperatureHumidityPressure
High81 °F (Aug 19, 3:00 PM)100% (Aug 13, 4:00 AM)30.21 "Hg (Aug 13, 4:00 AM)
Low43 °F (Aug 14, 6:00 AM)24% (Aug 27, 3:00 PM)29.89 "Hg (Aug 16, 3:00 PM)
Average61 °F66%30.10 "Hg
* Reported Aug 13 4:00 AM — Aug 28 4:00 AM, Lanchow, Weather by CustomWeather, © 2014

Note: Actual official high and low records may vary slightly from our data, if they occured in-between our weather recording intervals... More about our weather records

Advertising

Lanchow weather history for previous 24 hours

 ConditionsComfort  
Time TempWeatherWind HumidityBarometerVisibility
4:00 AM
Aug 28
52 °FClear.1 mph82%30.12 "Hg10 mi
3:00 AM52 °FClear.6 mph82%30.12 "Hg10 mi
2:00 AM54 °FClear.No wind82%30.12 "Hg10 mi
1:00 AM57 °FClear.No wind72%30.15 "Hg10 mi
12:00 AM63 °FClear.3 mph56%30.12 "Hg10 mi
11:00 PM
Aug 27
64 °FThunderstorms. Passing clouds.6 mph49%30.12 "HgN/A
10:00 PM68 °FThunderstorms. Passing clouds.6 mph40%30.12 "HgN/A
9:00 PM66 °FThunderstorms. Passing clouds.8 mph46%30.09 "HgN/A
8:00 PM66 °FThunderstorms. Passing clouds.8 mph49%30.09 "HgN/A
7:00 PM70 °FPassing clouds.22 mph38%30.07 "HgN/A
6:00 PM72 °FPassing clouds.22 mph38%30.04 "HgN/A
5:00 PM79 °FPassing clouds.17 mph28%30.04 "HgN/A
4:00 PM79 °FPassing clouds.6 mph26%30.04 "HgN/A
3:00 PM79 °FPassing clouds.6 mph24%30.04 "HgN/A
2:00 PM75 °FPassing clouds.3 mph31%30.07 "HgN/A
1:00 PM73 °FPassing clouds.3 mph33%30.09 "HgN/A
12:00 PM70 °FPassing clouds.6 mph40%30.12 "HgN/A
11:00 AM68 °FPassing clouds.8 mph46%30.12 "HgN/A
10:00 AM64 °FPassing clouds.3 mph52%30.12 "HgN/A
9:00 AM61 °FSunny.No wind55%30.12 "Hg10 mi
8:00 AM54 °FSunny.3 mph77%30.09 "Hg10 mi
7:00 AM48 °FClear.1 mph87%30.09 "Hg4 mi
6:00 AM48 °FClear.1 mph87%30.07 "Hg4 mi
5:00 AM48 °FClear.3 mph87%30.07 "Hg10 mi
Weather by CustomWeather, © 2014

See weather overviewHow to use our weather pages